Milan, NH

11:06 AM EST on February 07, 2016 (GMT -0500)
Berlin Municipal

Weather History for KBML - December, 2011

Change the Weather History Date:

Thursday, December 22, 2011

  Actual Average Record
Temperature  
Mean Temperature 33 °F -  
Max Temperature 39 °F 26 °F 48 °F (1998)
Min Temperature 27 °F 7 °F -11 °F (1997)
Degree Days  
Heating Degree Days 32    
Moisture  
Dew Point 32 °F    
Average Humidity 90    
Maximum Humidity 96    
Minimum Humidity 65    
Precipitation  
Precipitation 0.01 in - - ()
Sea Level Pressure  
Sea Level Pressure 29.86 in    
Wind  
Wind Speed 2 mph (West)    
Max Wind Speed 10 mph    
Max Gust Speed 22 mph    
Visibility 8 miles    
Events Rain    
Averages and records for this station are not official NWS values.
T = Trace of Precipitation, MM = Missing Value Source: NWS Daily Summary

Daily Weather History Graph

Daily Weather History Graph

Search for Another Location

Airport or City:

Trip Planner

Search our weather history database for the weather conditions in past years. The results will help you decide how hot, cold, wet, or windy it might be!

Date:

Astronomy

Dec. 22, 2011 Rise Set
Actual Time 7:18 AM EST 4:07 PM EST
Civil Twilight 6:45 AM EST 4:41 PM EST
Nautical Twilight 6:08 AM EST 5:18 PM EST
Astronomical Twilight 5:32 AM EST 5:53 PM EST
Moon 4:58 AM EST (12/22) 2:15 PM EST (12/22)
Length of Visible Light 9h 56m
Length of Day
8h 49m
Waning Crescent, 6% of the Moon is Illuminated
Dec 22
Waning Crescent
Dec 24
New
Jan 1
First Quarter
Jan 9
Full
Jan 16
Last Quarter

Hourly Weather History & Observations

Time (EST) Temp. Windchill Dew Point Humidity Pressure Visibility Wind Dir Wind Speed Gust Speed Precip Events Conditions
12:29 AM 33.8 °F - 30.2 °F 87% 29.55 in 7.0 mi Calm Calm - 0.01 in   Overcast
12:52 AM 33.1 °F - 32.0 °F 96% 29.60 in 8.0 mi Calm Calm - 0.01 in   Overcast
1:07 AM 33.8 °F - 32.0 °F 93% 29.55 in 9.0 mi Calm Calm - N/A   Overcast
1:52 AM 33.1 °F - 32.0 °F 96% 29.62 in 6.0 mi Calm Calm - N/A   Overcast
3:14 AM 33.8 °F - 32.0 °F 93% 29.61 in 4.0 mi Calm Calm - N/A   Overcast
3:42 AM 33.8 °F - 32.0 °F 93% 29.62 in 2.5 mi Calm Calm - N/A   Overcast
3:50 AM 33.8 °F - 32.0 °F 93% 29.63 in 3.0 mi Calm Calm - 0.00 in   Overcast
3:52 AM 33.1 °F - 32.0 °F 96% 29.68 in 3.0 mi Calm Calm - 0.00 in   Overcast
4:34 AM 33.8 °F 30.8 °F 32.0 °F 93% 29.66 in 6.0 mi South 3.5 mph - N/A   Overcast
4:52 AM 33.1 °F - 32.0 °F 96% 29.73 in 6.0 mi Calm Calm - N/A   Overcast
5:52 AM 39.0 °F 35.7 °F 36.0 °F 89% 29.78 in 10.0 mi WNW 4.6 mph - N/A   Overcast
6:28 AM 37.4 °F 31.4 °F 35.6 °F 93% 29.79 in 10.0 mi West 8.1 mph 21.9 mph N/A   Overcast
6:39 AM 37.4 °F 30.3 °F 35.6 °F 93% 29.81 in 10.0 mi West 10.4 mph 18.4 mph N/A   Overcast
6:50 AM 37.4 °F 30.8 °F 35.6 °F 93% 29.82 in 10.0 mi West 9.2 mph 20.7 mph N/A   Overcast
6:52 AM 37.0 °F 32.4 °F 35.1 °F 93% 29.86 in 10.0 mi Variable 5.8 mph 19.6 mph N/A   Overcast
7:01 AM 37.4 °F 30.3 °F 35.6 °F 93% 29.83 in 10.0 mi West 10.4 mph - N/A   Overcast
7:23 AM 35.6 °F 30.7 °F 33.8 °F 93% 29.85 in 10.0 mi Variable 5.8 mph 18.4 mph N/A   Overcast
7:52 AM 36.0 °F 29.0 °F 34.0 °F 93% 29.90 in 10.0 mi WNW 9.2 mph 17.3 mph N/A   Overcast
8:34 AM 35.6 °F 29.9 °F 33.8 °F 93% 29.89 in 9.0 mi West 6.9 mph - N/A   Overcast
9:52 AM 36.0 °F 33.3 °F 33.1 °F 89% 29.97 in 10.0 mi NW 3.5 mph - N/A   Overcast
10:00 AM 35.6 °F 32.8 °F 33.8 °F 93% 29.94 in 10.0 mi WNW 3.5 mph - N/A   Overcast
10:18 AM 35.6 °F - 33.8 °F 93% 29.95 in 10.0 mi Calm Calm - N/A   Overcast
10:45 AM 35.6 °F - 33.8 °F 93% 29.93 in 6.0 mi Calm Calm - 0.00 in Rain Light Rain
10:52 AM 36.0 °F 31.1 °F 33.1 °F 89% 29.97 in 7.0 mi Variable 5.8 mph - 0.00 in Rain Light Rain
11:05 AM 35.6 °F - 33.8 °F 93% 29.92 in 8.0 mi Calm Calm - 0.00 in Rain Light Rain
11:52 AM 37.9 °F 35.5 °F 32.0 °F 79% 29.95 in 10.0 mi West 3.5 mph - 0.00 in   Overcast
12:12 PM 39.2 °F - 32.0 °F 75% 29.90 in 10.0 mi Calm Calm - N/A   Scattered Clouds
12:52 PM 37.9 °F 34.4 °F 30.0 °F 73% 29.98 in 10.0 mi Variable 4.6 mph - N/A   Scattered Clouds
1:52 PM 39.9 °F 35.8 °F 28.9 °F 65% 29.99 in 10.0 mi West 5.8 mph - N/A   Clear
2:52 PM 39.0 °F 35.7 °F 28.0 °F 65% 30.01 in 10.0 mi Variable 4.6 mph - N/A   Clear
3:52 PM 35.1 °F - 28.0 °F 76% 30.04 in 10.0 mi Calm Calm - N/A   Clear
4:52 PM 30.0 °F - 28.0 °F 92% 30.05 in 10.0 mi Calm Calm - N/A   Clear
5:52 PM 30.0 °F - 28.0 °F 92% 30.06 in 10.0 mi Calm Calm - N/A   Clear
6:52 PM 27.0 °F - 26.1 °F 96% 30.10 in 10.0 mi Calm Calm - N/A   Partly Cloudy
7:52 PM 30.0 °F 26.5 °F 28.0 °F 92% 30.08 in 10.0 mi NW 3.5 mph - N/A   Scattered Clouds
8:52 PM 27.0 °F - 26.1 °F 96% 30.08 in 9.0 mi Calm Calm - N/A   Overcast
10:52 PM 28.9 °F - 27.0 °F 92% 30.04 in 9.0 mi Calm Calm - N/A   Mostly Cloudy
11:52 PM 30.0 °F - 28.0 °F 92% 30.06 in 9.0 mi Calm Calm - N/A   Overcast